{"data":{"norad_id":66565,"intl_designator":"2025-268J","name":"STARLINK-35893","alt_names":[],"object_type":"PAYLOAD","status":"ACTIVE","operator":null,"country":"US","launch_date":"2025-11-21","launch_site_code":"AFETR","launch_vehicle":null,"mission":null,"orbit_class":"UNKNOWN","rcs_meters":null,"size_class":null,"mass_kg":null,"dimensions":null,"purposes":["comms"],"wikipedia_slug":null,"has_3d_model":false,"image_url":null,"decayed_at":null,"tle_current":{"epoch":"2026-05-24T19:25:36.212160Z","epoch_age_seconds":91209,"freshness":"FRESH","line1":"1 66565U 25268J   26144.80944690  .00016199  00000+0  59688-3 0  9992","line2":"2 66565  43.0001 276.9753 0001280 277.8299  82.2407 15.27580301 29604","mean_motion":15.27580301,"eccentricity":0.000128,"inclination_deg":43.0001,"raan_deg":276.9753,"arg_perigee_deg":277.8299,"mean_anomaly_deg":82.2407,"bstar":0.00059688,"rev_number":2960,"period_min":94.266730138987,"perigee_km":482.16996303259,"apogee_km":483.92642644244,"semimajor_km":6861.1851947375,"source":"CELESTRAK","updated_at":"2026-05-25T13:38:21.278718Z"}}}